This demonstration page uses our WeatherBlox Daily Observations layout. Learn more.

Left ArrowRight Arrow

39.51506, -84.39828

Hourly Observations for June 20, 2015

Temp ( °F °C ) Dew Point ( °F °C ) Humidity (%) Winds ( mph kmh ) Pressure ( in mb ) Visibility ( mi km ) Precip ( " mm )
12:15 am 00:15 Clear 74 23.6 70 21 85 85 NE 3 6 29.91 1013 10 16 N/A
12:35 am 00:35 Partly Cloudy 74 23.6 70 21 85 85 NE 5 7 29.91 1013 10 16 N/A
12:55 am 00:55 Mostly Cloudy 74 23.6 69 20.8 84 84 N N/A 29.91 1013 10 16 N/A
1:15 am 01:15 Cloudy with Rain 74 23.6 70 21 85 85 N N/A 29.91 1013 5 8 N/A
1:35 am 01:35 Cloudy with Light Rain 74 23.6 70 21.2 86 86 N N/A 29.91 1013 10 16 N/A
1:55 am 01:55 Cloudy 74 23.6 70 21 85 85 N N/A 29.91 1013 10 16 N/A
2:15 am 02:15 Cloudy 74 23.6 70 21.1 86 86 ESE 3 6 29.91 1013 10 16 N/A
2:35 am 02:35 Cloudy 74 23.6 69 20.7 84 84 SSE 6 9 29.91 1013 10 16 N/A
2:55 am 02:55 Cloudy 74 23.6 69 20.6 83 83 SSE 5 7 29.91 1013 10 16 N/A
3:15 am 03:15 Cloudy 74 23.6 69 20.6 83 83 ESE 3 6 29.88 1012 10 16 N/A
3:35 am 03:35 Cloudy 74 23.6 69 20.6 83 83 SE 3 6 29.88 1012 10 16 N/A
3:55 am 03:55 Mostly Cloudy with Drizzle 74 23.6 69 20.6 83 83 N N/A 29.88 1012 10 16 N/A
4:15 am 04:15 Partly Cloudy with Light Rain 74 23.6 69 20.6 83 83 N N/A 29.88 1012 10 16 N/A
4:35 am 04:35 Mostly Cloudy with Drizzle 74 23.6 70 21 85 85 N N/A 29.88 1012 10 16 N/A
4:55 am 04:55 Mostly Cloudy with Light Rain 74 23.6 70 21.2 86 86 N N/A 29.88 1012 10 16 N/A
5:15 am 05:15 Cloudy with Light Rain 73 22.9 69 20.7 87 87 N N/A 29.85 1011 7 11 N/A
5:35 am 05:35 Cloudy with Light Rain 72 22.3 68 20.2 88 88 N N/A 29.85 1011 10 16 N/A
5:55 am 05:55 Cloudy with Light Rain 72 22.3 69 20.5 90 90 N N/A 29.85 1011 7 11 N/A
6:15 am 06:15 Cloudy with Rain 72 22.2 69 20.3 89 89 N N/A 29.85 1011 5 8 N/A
6:35 am 06:35 Cloudy with Rain 71 21.6 67 19.7 89 89 N N/A 29.85 1011 7 11 N/A
6:55 am 06:55 Cloudy with Rain 72 22.1 68 20 88 88 N N/A 29.85 1011 7 11 N/A
7:15 am 07:15 Cloudy with Light Rain 72 22.3 69 20.5 90 90 N N/A 29.85 1011 7 11 N/A
7:35 am 07:35 Cloudy with Rain 72 22.3 69 20.4 89 89 E 3 6 29.83 1010 5 8 N/A
7:55 am 07:55 Cloudy with Light Rain 72 22.3 69 20.5 90 90 N N/A 29.83 1010 7 11 N/A
8:15 am 08:15 Cloudy with Light Rain 72 22.3 68 20.2 88 88 E 9 15 29.83 1010 5 8 N/A
8:35 am 08:35 Cloudy with Light Rain 74 23.6 71 21.6 89 89 E 6 9 29.83 1010 7 11 N/A
8:55 am 08:55 Cloudy with Light Rain 74 23.6 71 21.5 88 88 ENE 7 11 29.83 1010 5 8 N/A
9:15 am 09:15 Cloudy with Heavy Rain 72 22.4 69 20.5 89 89 ENE 6 9 29.83 1010 3 4 N/A
9:35 am 09:35 Cloudy with Heavy Rain 72 22.3 69 20.5 90 90 ENE 8 13 29.83 1010 2 3 N/A
9:55 am 09:55 Cloudy with Rain 72 22.3 69 20.5 90 90 NE 8 13 29.83 1010 3 4 N/A
10:15 am 10:15 Cloudy with Rain 72 22.3 69 20.4 89 89 E 5 7 29.83 1010 3 4 N/A
10:35 am 10:35 Cloudy with Heavy Rain 72 22.2 69 20.5 90 90 ENE 7 11 29.83 1010 2 3 N/A
10:55 am 10:55 Cloudy with Rain 72 22.3 69 20.5 90 90 ENE 7 11 29.80 1009 3 5 N/A
11:15 am 11:15 Cloudy with Rain 72 22.3 69 20.5 90 90 NE 7 11 29.80 1009 4 6 N/A
11:35 am 11:35 Cloudy with Light Rain 72 22.3 69 20.6 90 90 NNE 6 9 29.83 1010 10 16 N/A
11:55 am 11:55 Cloudy with Rain 72 22.3 69 20.5 90 90 NE 9 15 29.80 1009 4 6 N/A
12:15 pm 12:15 Cloudy with Rain 72 22.3 69 20.6 90 90 N 7 11 29.83 1010 3 5 N/A
12:35 pm 12:35 Cloudy with Rain 72 22.3 69 20.5 90 90 N 7 11 29.83 1010 4 6 N/A
12:55 pm 12:55 Cloudy with Rain 72 22.3 69 20.5 90 90 N 8 13 29.83 1010 5 8 N/A
1:15 pm 13:15 Cloudy with Light Rain 74 23.6 71 21.7 89 89 NNE 9 15 29.83 1010 7 11 N/A
1:35 pm 13:35 Cloudy with Drizzle 74 23.6 71 21.6 89 89 NNE 3 6 29.83 1010 7 11 N/A
1:55 pm 13:55 Cloudy 74 23.6 71 21.5 88 88 NNE 8 13 29.83 1010 7 11 N/A
2:15 pm 14:15 Cloudy 74 23.6 71 21.5 88 88 NNE 9 15 29.83 1010 10 16 N/A
2:35 pm 14:35 Cloudy with Haze 74 23.6 70 21.2 86 86 NNE 8 13 29.83 1010 5 8 N/A
2:55 pm 14:55 Cloudy 74 23.6 70 21.2 86 86 N 7 11 29.83 1010 7 11 N/A
3:15 pm 15:15 Mostly Cloudy 77 25.1 72 22 83 83 NNE 9 15 29.80 1009 10 16 N/A
3:35 pm 15:35 Mostly Cloudy 77 25.1 70 21.3 80 80 N 9 15 29.83 1010 10 16 N/A
3:55 pm 15:55 Mostly Cloudy 80 26.5 71 21.7 75 75 N 8 13 29.80 1009 10 16 N/A
4:15 pm 16:15 Partly Cloudy 80 26.5 71 21.6 75 75 N 6 9 29.80 1009 10 16 N/A
4:35 pm 16:35 Partly Cloudy 80 26.5 71 21.5 74 74 N N/A 29.80 1009 10 16 N/A
4:55 pm 16:55 Partly Cloudy 80 26.5 71 21.4 74 74 N N/A 29.80 1009 10 16 N/A
5:15 pm 17:15 Partly Cloudy 81 27.2 72 22 73 73 NW 8 13 29.80 1009 10 16 N/A
5:35 pm 17:35 Sunny 81 27.1 71 21.5 72 72 NW 3 6 29.80 1009 10 16 N/A
5:55 pm 17:55 Partly Cloudy 80 26.9 71 21.5 72 72 N N/A 29.80 1009 10 16 N/A
6:15 pm 18:15 Partly Cloudy 81 27.1 71 21.7 72 72 WNW 3 6 29.80 1009 10 16 N/A
6:35 pm 18:35 Partly Cloudy 80 26.9 71 21.6 73 73 N N/A 29.80 1009 10 16 N/A
6:55 pm 18:55 Mostly Cloudy 81 27.2 72 22.1 74 74 N N/A 29.80 1009 10 16 N/A
7:15 pm 19:15 Mostly Cloudy 81 27.2 72 22 73 73 N N/A 29.80 1009 10 16 N/A
7:35 pm 19:35 Partly Cloudy 81 27.3 71 21.8 72 72 W 7 11 29.80 1009 10 16 N/A
7:55 pm 19:55 Partly Cloudy 80 26.5 71 21.8 75 75 W 8 13 29.83 1010 10 16 N/A
8:15 pm 20:15 Partly Cloudy 80 26.5 72 22 76 76 W 6 9 29.83 1010 10 16 N/A
8:35 pm 20:35 Partly Cloudy 80 26.5 72 22.2 77 77 WNW 5 7 29.85 1011 10 16 N/A
8:55 pm 20:55 Mostly Cloudy 79 26.2 72 22.4 80 80 W 3 6 29.85 1011 10 16 N/A
9:15 pm 21:15 Partly Cloudy 77 25.1 71 21.9 82 82 WSW 3 6 29.85 1011 10 16 N/A
9:35 pm 21:35 Clear 74 23.6 70 21.1 86 86 N N/A 29.85 1011 10 16 N/A
9:55 pm 21:55 Clear 74 23.6 71 21.5 88 88 N N/A 29.85 1011 7 11 N/A
10:15 pm 22:15 Partly Cloudy with Mist and Fog 74 23.6 71 21.6 89 89 NW 3 6 29.88 1012 5 8 N/A
10:35 pm 22:35 Mostly Cloudy with Mist and Fog 74 23.6 71 21.7 89 89 WNW 3 6 29.88 1012 5 8 N/A
10:55 pm 22:55 Cloudy 75 23.9 71 21.5 86 86 WNW 6 9 29.91 1013 10 16 N/A

Powered by AerisWeather